User: anonymous   Login
Location: Gollag?dem
(16.8053°N, 80.8024°E)
Time: 12:08:44
(UTC+00:00)
Language:

Aureole 2 Rocket - Orbit

View from above orbital plane
View from above orbital plane
View from above satellite
View from above satellite

Ground track
Ground track

The orbit data is extracted from the following two-line orbital elements,

1  7004U 73107B   20293.27403567 +.00023210 +18548-5 +16034-3 0  9995
2  7004 073.9193 234.8746 0085189 151.2265 209.3698 15.69870068426618
Epoch (UTC): 19 October 2020 06:34:36
Eccentricity: 0.0085189
inclination: 73.9193°
perigee height: 302 km
apogee height: 416 km
right ascension of ascending node: 234.8746°
argument of perigee: 151.2265°
revolutions per day: 15.69870068
mean anomaly at epoch: 209.3698°
orbit number at epoch: 42661

The dashed part of the orbit path shows where the satellite is in the earth's shadow,  

DLR